Date String (YYYY-MM-DD hh:mm:ss) UTC,Instrument flags,Ambient pressure (hPa),Sample flow (lpm),Bypass flow (lpm),Sample temperature (°C),Ambient temperature (°C),ASC tube jacket temperature (°C),LED temperature (°C),Box temperature (°C),Sample RH (%),Span deviation,Mass concentration (μg/m³),Mass concentration (μg/m³),Mass concentration (μg/m³)
DateTimeUTC,F1_M11,P_M11,Q1_M11,Q2_M11,T1_M11,T2_M11,T3_M11,T4_M11,T5_M11,U1_M11,ZSPAN_M11,X0_M11,X2_M11,X1_M11
2022-03-03 00:00:00,,0827.6,4.99,0.00,29.9,28.9,00.0,38.8,31.7,09.7,0000.0,0006.17,0002.61,0002.05
2022-03-03 00:01:00,,0827.7,5.00,0.00,29.9,29.0,00.0,38.8,31.7,10.1,0000.0,0007.72,0002.53,0001.96
2022-03-03 00:02:00,,0827.7,5.00,0.00,29.9,29.1,00.0,38.8,31.8,10.0,0000.0,0008.10,0002.54,0001.92
2022-03-03 00:03:00,,0827.6,4.99,0.00,30.0,29.1,00.0,38.8,31.8,10.1,0000.0,0008.29,0002.51,0001.85
2022-03-03 00:04:00,,0827.7,5.00,0.00,30.0,29.2,00.0,38.8,31.8,09.8,0000.0,0008.49,0002.51,0001.77
2022-03-03 00:05:00,,0827.7,5.02,0.00,30.0,29.2,00.0,38.9,31.9,10.0,0000.0,0008.45,0002.48,0001.74
2022-03-03 00:06:00,,0827.7,4.99,0.00,30.1,29.3,00.0,38.9,31.9,09.9,0000.0,0008.56,0002.45,0001.72
2022-03-03 00:07:00,,0827.7,4.99,0.00,30.1,29.3,00.0,38.9,32.0,10.0,0000.0,0008.85,0002.53,0001.77
2022-03-03 00:08:00,,0827.7,5.01,0.00,30.1,29.3,00.0,38.9,32.0,10.3,0000.0,0008.98,0002.62,0001.82
2022-03-03 00:09:00,,0827.7,4.99,0.00,30.1,29.3,00.0,39.0,32.0,10.4,0000.0,0009.78,0002.65,0001.88
2022-03-03 00:10:00,,0827.7,5.00,0.00,30.2,29.3,00.0,39.0,32.0,10.5,0000.0,0010.01,0002.78,0001.96
2022-03-03 00:11:00,,0827.7,5.00,0.00,30.2,29.4,00.0,39.0,32.0,10.5,0000.0,0010.13,0002.79,0002.01
2022-03-03 00:12:00,,0827.7,5.00,0.00,30.2,29.4,00.0,39.0,32.1,10.6,0000.0,0009.33,0002.86,0002.07
2022-03-03 00:13:00,,0827.7,4.99,0.00,30.2,29.4,00.0,39.1,32.0,10.6,0000.0,0008.98,0002.92,0002.14
2022-03-03 00:14:00,,0827.7,5.00,0.00,30.2,29.5,00.0,39.1,32.1,10.7,0000.0,0009.31,0002.99,0002.22
2022-03-03 00:15:00,,0827.7,5.00,0.00,30.3,29.0,00.0,39.1,32.0,10.7,0000.0,0009.42,0003.06,0002.29
2022-03-03 00:16:00,,0827.7,5.01,0.00,30.1,27.0,00.0,39.1,31.4,10.7,0000.0,0009.52,0003.12,0002.33
2022-03-03 00:17:00,,0827.7,5.00,0.00,30.0,26.5,00.0,39.1,31.3,10.7,0000.0,0009.57,0003.14,0002.37
2022-03-03 00:18:00,,0827.7,5.00,0.00,29.9,26.7,00.0,39.0,31.3,10.7,0000.0,0009.77,0003.18,0002.39
2022-03-03 00:19:00,,0827.7,4.99,0.00,29.8,27.2,00.0,38.9,31.4,10.8,0000.0,0009.95,0003.17,0002.38
2022-03-03 00:20:00,,0827.7,5.01,0.00,29.8,27.5,00.0,38.9,31.4,10.8,0000.0,0010.02,0003.18,0002.37
2022-03-03 00:21:00,,0827.7,5.00,0.00,29.8,27.9,00.0,38.9,31.5,10.8,0000.0,0010.71,0003.17,0002.35
2022-03-03 00:22:00,,0827.7,4.99,0.00,29.9,28.2,00.0,38.9,31.5,10.8,0000.0,0011.31,0003.22,0002.35
2022-03-03 00:23:00,,0827.7,5.01,0.00,29.9,28.4,00.0,38.9,31.6,10.7,0000.0,0011.60,0003.27,0002.39
2022-03-03 00:24:00,,0827.7,5.01,0.00,29.9,28.6,00.0,38.9,31.7,10.7,0000.0,0011.92,0003.30,0002.46
2022-03-03 00:25:00,,0827.7,4.99,0.00,29.9,28.7,00.0,38.9,31.7,10.7,0000.0,0012.04,0003.36,0002.58
2022-03-03 00:26:00,,0827.7,5.01,0.00,29.9,28.8,00.0,38.9,31.7,10.7,0000.0,0011.89,0003.41,0002.70
2022-03-03 00:27:00,,0827.7,5.00,0.00,30.0,28.9,00.0,38.9,31.8,10.9,0000.0,0011.88,0003.44,0002.79
2022-03-03 00:28:00,,0827.7,5.00,0.00,30.0,29.0,00.0,38.9,31.8,11.2,0000.0,0011.80,0003.53,0002.85
2022-03-03 00:29:00,,0827.7,5.01,0.00,30.0,29.0,00.0,38.9,31.8,11.3,0000.0,0011.90,0003.55,0002.90
2022-03-03 00:30:00,,0827.7,4.99,0.00,30.0,29.1,00.0,38.9,31.9,10.8,0000.0,0012.81,0003.64,0003.03
2022-03-03 00:31:00,,0827.7,5.01,0.00,30.1,29.1,00.0,38.9,31.9,10.4,0000.0,0012.66,0003.88,0003.31
2022-03-03 00:32:00,,0827.7,4.99,0.00,30.1,29.1,00.0,39.0,31.9,10.4,0002.5,0012.62,0004.22,0003.64
2022-03-03 00:33:00,,0827.7,5.01,0.00,30.1,29.2,00.0,39.0,31.9,10.2,0004.1,0012.49,0004.59,0004.03
2022-03-03 00:34:00,,0827.7,5.01,0.00,30.1,29.2,00.0,39.0,32.0,10.2,0002.8,0012.65,0004.94,0004.38
2022-03-03 00:35:00,,0827.7,4.98,0.00,30.1,29.3,00.0,39.0,32.0,10.1,0003.4,0013.11,0005.39,0004.82
2022-03-03 00:36:00,,0827.7,5.01,0.00,30.2,29.3,00.0,39.0,32.0,10.2,0003.1,0013.84,0005.81,0005.20
2022-03-03 00:37:00,,0827.7,5.00,0.00,30.2,29.4,00.0,39.0,32.0,10.2,0003.6,0015.06,0006.23,0005.60
2022-03-03 00:38:00,,0827.7,4.99,0.00,30.2,29.4,00.0,39.1,32.0,10.2,0004.2,0016.16,0006.65,0006.00
2022-03-03 00:39:00,,0827.7,5.01,0.00,30.2,29.4,00.0,39.1,32.1,10.2,0003.6,0016.68,0007.02,0006.39
2022-03-03 00:40:00,,0827.7,5.00,0.00,30.2,29.1,00.0,39.1,32.0,10.2,0002.7,0016.82,0007.47,0006.83
2022-03-03 00:41:00,,0827.7,4.99,0.00,30.1,26.9,00.0,39.1,31.4,10.0,0003.3,0016.52,0007.90,0007.25
2022-03-03 00:42:00,,0827.7,5.02,0.00,29.9,25.4,00.0,39.0,31.0,10.2,0002.7,0016.44,0008.21,0007.52
2022-03-03 00:43:00,,0827.8,4.99,0.00,29.8,25.5,00.0,39.0,31.0,10.2,0002.5,0016.40,0008.38,0007.68
2022-03-03 00:44:00,,0827.7,5.00,0.00,29.6,26.0,00.0,38.9,30.9,10.4,0001.8,0016.45,0008.52,0007.79
2022-03-03 00:45:00,,0827.7,5.00,0.00,29.6,26.5,00.0,38.8,31.0,10.6,0002.0,0016.15,0008.53,0007.80
2022-03-03 00:46:00,,0827.7,4.99,0.00,29.6,26.9,00.0,38.7,31.1,10.6,0001.0,0015.74,0008.51,0007.77
2022-03-03 00:47:00,,0827.7,5.00,0.00,29.6,27.3,00.0,38.7,31.2,10.5,0001.2,0014.83,0008.56,0007.80
2022-03-03 00:48:00,,0827.7,5.01,0.00,29.6,27.6,00.0,38.7,31.2,10.5,0001.2,0014.13,0008.58,0007.82
2022-03-03 00:49:00,,0827.7,4.99,0.00,29.6,27.9,00.0,38.7,31.3,10.4,0000.9,0014.97,0008.73,0007.90
2022-03-03 00:50:00,,0827.7,5.00,0.00,29.6,28.1,00.0,38.7,31.3,10.3,0000.8,0015.13,0008.83,0008.01
2022-03-03 00:51:00,,0827.7,5.01,0.00,29.6,28.2,00.0,38.7,31.4,10.4,0001.1,0015.41,0008.90,0008.09
2022-03-03 00:52:00,,0827.7,5.00,0.00,29.7,28.4,00.0,38.6,31.4,10.4,0001.2,0016.60,0008.99,0008.16
2022-03-03 00:53:00,,0827.7,4.99,0.00,29.7,28.5,00.0,38.6,31.5,10.4,0000.8,0017.00,0009.06,0008.22
2022-03-03 00:54:00,,0827.8,5.01,0.00,29.7,28.6,00.0,38.7,31.5,10.4,0000.4,0017.11,0009.15,0008.28
2022-03-03 00:55:00,,0827.8,5.00,0.00,29.7,28.6,00.0,38.7,31.5,10.5,0000.3,0017.29,0009.22,0008.35
2022-03-03 00:56:00,,0827.8,5.03,0.00,29.8,28.7,00.0,38.7,31.5,10.5,0000.2,0017.88,0009.35,0008.45
2022-03-03 00:57:00,,0827.8,4.99,0.00,29.8,28.7,00.0,38.7,31.6,10.5,0000.2,0019.10,0009.43,0008.54
2022-03-03 00:58:00,,0827.8,4.98,0.00,29.8,28.8,00.0,38.7,31.6,10.6,-000.1,0019.73,0009.44,0008.56
2022-03-03 00:59:00,,0827.7,5.01,0.00,29.8,28.8,00.0,38.7,31.6,10.6,-000.1,0020.66,0009.56,0008.60
